TimeEST,TemperatureF,Dew PointF,Humidity,Sea Level PressureIn,VisibilityMPH,Wind Direction,Wind SpeedMPH,Gust SpeedMPH,PrecipitationIn,Events,Conditions,WindDirDegrees,DateUTC
12:55 AM,22.3,-2.0,35,30.10,10.0,SW,9.2,-,N/A,,Clear,230,2013-02-19 05:55:00
1:55 AM,22.6,-0.4,37,30.12,10.0,WSW,13.8,-,N/A,,Scattered Clouds,250,2013-02-19 06:55:00
2:55 AM,22.6,0.5,38,30.13,10.0,WSW,10.4,-,N/A,,Overcast,250,2013-02-19 07:55:00
3:55 AM,23.2,1.8,40,30.13,10.0,WSW,9.2,-,N/A,,Overcast,250,2013-02-19 08:55:00
4:55 AM,22.6,3.4,44,30.12,10.0,West,5.8,-,N/A,,Mostly Cloudy,260,2013-02-19 09:55:00
5:55 AM,21.7,1.4,41,30.10,10.0,NW,3.5,-,N/A,,Overcast,310,2013-02-19 10:55:00
6:55 AM,22.6,6.4,50,30.10,10.0,SW,8.1,-,N/A,,Overcast,220,2013-02-19 11:55:00
7:55 AM,23.2,3.9,44,30.10,10.0,South,3.5,-,N/A,,Mostly Cloudy,180,2013-02-19 12:55:00
8:55 AM,26.1,1.2,34,30.09,10.0,Calm,Calm,-,N/A,,Scattered Clouds,0,2013-02-19 13:55:00
9:55 AM,28.9,3.7,34,30.08,10.0,Calm,Calm,-,N/A,,Mostly Cloudy,0,2013-02-19 14:55:00
10:55 AM,35.1,6.1,30,30.06,10.0,Calm,Calm,-,N/A,,Mostly Cloudy,0,2013-02-19 15:55:00
11:55 AM,34.9,13.1,41,30.03,10.0,East,5.8,-,N/A,,Overcast,90,2013-02-19 16:55:00
12:55 PM,37.2,14.2,39,29.99,10.0,ESE,4.6,-,N/A,,Overcast,120,2013-02-19 17:55:00
1:55 PM,37.9,25.3,60,29.95,10.0,East,9.2,-,N/A,,Overcast,100,2013-02-19 18:55:00
2:55 PM,38.5,30.6,73,29.92,10.0,East,6.9,-,N/A,,Overcast,90,2013-02-19 19:55:00
3:55 PM,39.6,34.5,82,29.87,10.0,East,8.1,-,N/A,,Overcast,100,2013-02-19 20:55:00
4:55 PM,40.5,33.3,75,29.83,10.0,SE,13.8,-,N/A,,Overcast,140,2013-02-19 21:55:00
5:26 PM,39.2,33.8,81,29.82,10.0,SSE,17.3,-,N/A,Rain,Light Rain,150,2013-02-19 22:26:00
5:46 PM,39.2,35.6,87,29.82,10.0,SSE,16.1,-,N/A,,Overcast,150,2013-02-19 22:46:00
5:55 PM,39.0,35.2,86,29.81,7.0,SE,13.8,-,0.00,Rain,Light Rain,140,2013-02-19 22:55:00
7:55 PM,39.6,38.7,97,29.72,5.0,SE,15.0,-,0.05,Rain,Light Rain,140,2013-02-20 00:55:00
8:15 PM,39.2,39.2,100,29.71,4.0,SE,12.7,-,N/A,Rain,Light Rain,140,2013-02-20 01:15:00
8:24 PM,39.2,39.2,100,29.70,4.0,SE,15.0,-,N/A,Rain,Light Rain,130,2013-02-20 01:24:00
8:55 PM,40.5,40.3,99,29.66,4.0,SE,17.3,-,0.12,Rain,Light Rain,130,2013-02-20 01:55:00
9:55 PM,40.3,40.1,99,29.61,5.0,SSE,12.7,-,0.04,Rain,Light Rain,160,2013-02-20 02:55:00
10:55 PM,39.6,39.2,99,29.60,5.0,Calm,Calm,-,0.08,Rain,Light Rain,0,2013-02-20 03:55:00
11:12 PM,39.2,39.2,100,29.59,4.0,SSE,3.5,-,N/A,Rain,Light Rain,160,2013-02-20 04:12:00
11:55 PM,38.1,37.8,99,29.55,0.5,Calm,Calm,-,0.03,Fog-Rain,Light Rain,0,2013-02-20 04:55:00